• In Hungary
  • List of Countries
  • For 7 days
  • Water Temperature
  • Satellite Maps
  • Weather Map
  • News
  • Weather Widgets
  • user-avatar
    Login

    Hourly Weather Freising

    Today, 15 December, Friday

    Time Temperature Precipitation Wind Pressure Humidity
    00:00 +1°C° 1 mm 3 mps 706 mmHg 90%
    01:00 +1°C° 1 mm 3 mps 706 mmHg 91%
    02:00 +1°C° 0.9 mm 3 mps 706 mmHg 92%
    03:00 +1°C° 0.9 mm 3 mps 706 mmHg 92%
    04:00 +1°C° 0.9 mm 3 mps 706 mmHg 93%
    05:00 0°C° 0.4 mm 4 mps 706 mmHg 91%
    06:00 0°C° 0.4 mm 4 mps 707 mmHg 90%
    07:00 0°C° 0.4 mm 5 mps 707 mmHg 88%
    08:00 0°C° 0 mm 4 mps 707 mmHg 87%
    09:00 0°C° 0 mm 4 mps 708 mmHg 85%
    10:00 0°C° 0 mm 4 mps 708 mmHg 84%
    11:00 +1°C° 0 mm 4 mps 708 mmHg 81%
    12:00 +3°C° 0 mm 4 mps 708 mmHg 79%
    13:00 +3°C° 0 mm 4 mps 708 mmHg 76%
    14:00 +3°C° 0 mm 4 mps 708 mmHg 79%
    15:00 +2°C° 0 mm 3 mps 708 mmHg 82%
    16:00 +1°C° 0 mm 3 mps 708 mmHg 84%
    17:00 +1°C° 0.1 mm 3 mps 708 mmHg 86%
    18:00 0°C° 0.1 mm 3 mps 709 mmHg 87%
    19:00 0°C° 0.1 mm 3 mps 709 mmHg 89%
    20:00 -1°C° 0 mm 2 mps 710 mmHg 90%
    21:00 -1°C° 0 mm 2 mps 710 mmHg 90%
    22:00 -2°C° 0 mm 2 mps 710 mmHg 91%
    23:00 -1°C° 0 mm 2 mps 710 mmHg 91%

    Tomorrow, 16 December, Saturday

    Time Temperature Precipitation Wind Pressure Humidity
    00:00 -1°C° 0 mm 2 mps 711 mmHg 91%
    01:00 -1°C° 0 mm 2 mps 711 mmHg 90%
    02:00 -1°C° 0 mm 2 mps 711 mmHg 90%
    03:00 -1°C° 0 mm 2 mps 711 mmHg 90%
    04:00 -1°C° 0 mm 2 mps 711 mmHg 90%
    05:00 -2°C° 0.1 mm 2 mps 711 mmHg 91%
    06:00 -2°C° 0.1 mm 2 mps 712 mmHg 91%
    07:00 -2°C° 0.1 mm 2 mps 712 mmHg 92%
    08:00 -1°C° 0.1 mm 2 mps 713 mmHg 91%
    09:00 -1°C° 0.1 mm 3 mps 713 mmHg 90%
    10:00 0°C° 0.1 mm 3 mps 714 mmHg 89%
    11:00 0°C° 0.1 mm 3 mps 714 mmHg 88%
    12:00 +1°C° 0.1 mm 3 mps 714 mmHg 88%
    13:00 +1°C° 0.1 mm 3 mps 715 mmHg 87%
    14:00 +1°C° 0.1 mm 3 mps 715 mmHg 88%
    15:00 +1°C° 0.1 mm 3 mps 716 mmHg 88%
    16:00 +1°C° 0.1 mm 2 mps 716 mmHg 89%
    17:00 0°C° 0.1 mm 3 mps 717 mmHg 89%
    18:00 -1°C° 0.1 mm 3 mps 718 mmHg 90%
    19:00 -1°C° 0.1 mm 3 mps 719 mmHg 91%
    20:00 -1°C° 0.1 mm 3 mps 719 mmHg 91%
    21:00 -1°C° 0.1 mm 3 mps 720 mmHg 90%
    22:00 -1°C° 0.1 mm 3 mps 720 mmHg 90%
    23:00 -1°C° 0.1 mm 3 mps 721 mmHg 91%

    Day after tomorrow, 17 December, Sunday

    Time Temperature Precipitation Wind Pressure Humidity
    00:00 -1°C° 0.1 mm 3 mps 721 mmHg 91%
    01:00 -1°C° 0.1 mm 3 mps 721 mmHg 92%
    02:00 -2°C° 0.1 mm 4 mps 722 mmHg 91%
    03:00 -2°C° 0.1 mm 4 mps 722 mmHg 90%
    04:00 -2°C° 0.1 mm 4 mps 722 mmHg 89%
    05:00 -2°C° 0.1 mm 4 mps 723 mmHg 89%
    06:00 -2°C° 0.1 mm 4 mps 723 mmHg 89%
    07:00 -2°C° 0.1 mm 4 mps 724 mmHg 89%
    08:00 -2°C° 0.1 mm 5 mps 724 mmHg 88%
    09:00 -2°C° 0.1 mm 5 mps 725 mmHg 88%
    10:00 -2°C° 0.1 mm 5 mps 726 mmHg 87%
    11:00 -2°C° 0.2 mm 5 mps 726 mmHg 86%
    12:00 -1°C° 0.2 mm 5 mps 726 mmHg 85%
    13:00 -1°C° 0.2 mm 5 mps 726 mmHg 85%
    14:00 -1°C° 0.2 mm 4 mps 727 mmHg 85%
    15:00 -2°C° 0.2 mm 4 mps 727 mmHg 86%
    16:00 -2°C° 0.2 mm 4 mps 727 mmHg 86%
    17:00 -2°C° 0.1 mm 4 mps 728 mmHg 87%
    18:00 -2°C° 0.1 mm 3 mps 728 mmHg 88%
    19:00 -2°C° 0.1 mm 3 mps 729 mmHg 89%
    20:00 -2°C° 0 mm 3 mps 729 mmHg 90%
    21:00 -4°C° 0 mm 3 mps 730 mmHg 91%
    22:00 -4°C° 0 mm 3 mps 730 mmHg 92%
    23:00 -4°C° 0 mm 3 mps 730 mmHg 92%

    18 December, Monday

    Time Temperature Precipitation Wind Pressure Humidity
    00:00 -4°C° 0 mm 4 mps 730 mmHg 91%
    01:00 -4°C° 0 mm 4 mps 730 mmHg 91%
    02:00 -4°C° 0 mm 4 mps 730 mmHg 87%
    03:00 -4°C° 0 mm 4 mps 729 mmHg 84%
    04:00 -5°C° 0 mm 5 mps 729 mmHg 80%
    05:00 -5°C° 0.1 mm 5 mps 728 mmHg 79%
    06:00 -4°C° 0.1 mm 6 mps 728 mmHg 77%
    07:00 -4°C° 0.1 mm 7 mps 727 mmHg 76%
    08:00 -4°C° 1.2 mm 7 mps 727 mmHg 81%
    09:00 -4°C° 1.2 mm 8 mps 726 mmHg 86%
    10:00 -4°C° 1.2 mm 9 mps 725 mmHg 90%
    11:00 -3°C° 0.6 mm 9 mps 725 mmHg 90%
    12:00 -3°C° 0.6 mm 9 mps 724 mmHg 90%
    13:00 -1°C° 0.6 mm 9 mps 724 mmHg 89%
    14:00 -1°C° 0.7 mm 7 mps 724 mmHg 91%
    15:00 -1°C° 0.7 mm 6 mps 724 mmHg 92%
    16:00 0°C° 0.7 mm 5 mps 725 mmHg 94%
    17:00 0°C° 0.2 mm 5 mps 725 mmHg 93%
    18:00 -1°C° 0.2 mm 4 mps 726 mmHg 92%
    19:00 -1°C° 0.2 mm 4 mps 727 mmHg 92%
    20:00 -1°C° 0.1 mm 4 mps 727 mmHg 92%
    21:00 -1°C° 0.1 mm 4 mps 728 mmHg 92%
    22:00 -2°C° 0.1 mm 4 mps 729 mmHg 92%
    23:00 -2°C° 0.1 mm 4 mps 729 mmHg 92%

    19 December, Tuesday

    Time Temperature Precipitation Wind Pressure Humidity
    00:00 -2°C° 0.1 mm 4 mps 730 mmHg 93%
    01:00 -2°C° 0.1 mm 4 mps 730 mmHg 93%
    02:00 -2°C° 0 mm 4 mps 730 mmHg 93%
    03:00 -1°C° 0 mm 3 mps 731 mmHg 94%
    04:00 -2°C° 0 mm 3 mps 731 mmHg 94%
    05:00 -2°C° 0 mm 3 mps 731 mmHg 94%
    06:00 -2°C° 0 mm 3 mps 732 mmHg 95%
    07:00 -2°C° 0 mm 3 mps 732 mmHg 95%
    08:00 -2°C° 0 mm 3 mps 733 mmHg 95%
    09:00 -1°C° 0 mm 3 mps 733 mmHg 94%
    10:00 -1°C° 0 mm 3 mps 734 mmHg 94%
    11:00 -1°C° 0 mm 3 mps 734 mmHg 95%
    12:00 0°C° 0 mm 3 mps 733 mmHg 96%
    13:00 0°C° 0 mm 3 mps 733 mmHg 97%
    14:00 +1°C° 0 mm 2 mps 733 mmHg 96%
    15:00 -1°C° 0 mm 2 mps 733 mmHg 95%
    16:00 -1°C° 0 mm 2 mps 734 mmHg 94%
    17:00 -1°C° 0 mm 2 mps 734 mmHg 94%
    18:00 -1°C° 0 mm 2 mps 735 mmHg 94%
    19:00 +1°C° 0 mm 1 mps 735 mmHg 94%
    20:00 -1°C° 0.1 mm 2 mps 735 mmHg 95%
    21:00 -1°C° 0.1 mm 2 mps 735 mmHg 95%
    22:00 -1°C° 0.1 mm 2 mps 735 mmHg 95%
    23:00 -1°C° 0.4 mm 2 mps 735 mmHg 95%

    20 December, Wednesday

    Time Temperature Precipitation Wind Pressure Humidity
    00:00 -1°C° 0.4 mm 2 mps 735 mmHg 95%
    01:00 -1°C° 0.4 mm 2 mps 735 mmHg 95%
    02:00 -1°C° 0.2 mm 3 mps 735 mmHg 95%
    03:00 -1°C° 0.2 mm 3 mps 734 mmHg 94%
    04:00 0°C° 0.2 mm 3 mps 734 mmHg 94%
    05:00 0°C° 0.3 mm 3 mps 734 mmHg 93%
    06:00 0°C° 0.3 mm 3 mps 734 mmHg 93%
    07:00 +1°C° 0.3 mm 2 mps 734 mmHg 92%
    08:00 +1°C° 0.3 mm 2 mps 734 mmHg 93%
    09:00 +1°C° 0.3 mm 2 mps 734 mmHg 93%
    10:00 +1°C° 0.3 mm 2 mps 734 mmHg 94%
    11:00 +1°C° 0.2 mm 2 mps 734 mmHg 95%
    12:00 +2°C° 0.2 mm 2 mps 734 mmHg 96%
    13:00 +2°C° 0.2 mm 2 mps 734 mmHg 97%
    14:00 +2°C° 0.3 mm 2 mps 734 mmHg 97%
    15:00 +2°C° 0.3 mm 2 mps 734 mmHg 98%
    16:00 +2°C° 0.3 mm 2 mps 734 mmHg 98%
    17:00 +2°C° 0.3 mm 2 mps 734 mmHg 98%
    18:00 +2°C° 0.3 mm 2 mps 734 mmHg 98%
    19:00 +2°C° 0.3 mm 2 mps 735 mmHg 98%
    20:00 +2°C° 0.1 mm 2 mps 735 mmHg 98%
    21:00 +2°C° 0.1 mm 2 mps 735 mmHg 98%
    22:00 +2°C° 0.1 mm 2 mps 735 mmHg 98%
    23:00 +2°C° 0 mm 2 mps 735 mmHg 98%
    Show more